Tracking 28799 objects as of 18-Apr-2024
HD Live streaming from Space Station
objects crossing your sky now

FENGYUN 1C DEB

Track FENGYUN 1C DEB now!
10-day predictions


NORAD ID: 31997
Int'l Code: 1999-025CQA
Perigee: 835.2 km
Apogee: 1,276.8 km
Inclination: 102.5 °
Period: 106.2 minutes
Semi major axis: 7427 km
RCS: 0.013 m2 (small)
Launch date: May 10, 1999
Source: People's Republic of China (PRC)
Launch site: Taiyaun Space Center, China (TSC)

Note: This is SATELLITE DEBRIS
Your satellite tracking list
Your tracking list is empty




NASA's NSSDC Master Catalog

Two Line Element Set (TLE):
1 31997U 99025CQA 24108.90143951  .00003754  00000-0  40766-2 0  9995
2 31997 102.5167 341.3288 0297311 194.2605 164.9991 13.56376071534822
Source of the keplerian elements: AFSPC